#timestamp,LO_Frequency,Hit,StdDev 
1680926415.9,286047000.0,N
1680926435.7,286047002.2,N
1680926455.5,286047002.7,N
1680926475.4,286047000.1,N
1680926495.2,286047000.7,N
1680926515.1,286047000.5,N
1680926516.0,286047000.5,N
1680926535.8,286047000.1,N
1680926555.6,286047000.8,N
1680926575.5,286046999.8,N
1680926595.3,286047000.5,N
1680926615.1,286047002.7,N
1680926635.9,286046999.9,N
1680926655.7,286046999.8,N
1680926675.6,286047002.4,N
1680926695.4,286046998.2,N
1680926715.2,286046996.5,N
1680926735.1,286046999.5,N
1680926736.0,286046999.5,N
1680926755.8,286046998.9,N
1680926775.6,286047001.0,N
1680926795.5,286047000.4,N
1680926815.3,286047001.9,N
1680926835.2,286047003.6,N
1680926855.9,286047001.6,N
1680926875.7,286047003.4,N
1680926895.6,286047003.6,N
1680926915.4,286047001.6,N
1680926935.2,286047000.1,N
1680926955.1,286047001.0,N
1680926956.0,286047001.0,N
1680926975.8,286047002.6,N
1680926995.7,286047002.5,N
1680927015.5,286047000.3,N
1680927035.3,286046999.7,N
1680927055.2,286047001.3,N
1680927075.0,286047003.3,N
1680927075.9,286047003.3,N
1680927095.8,286047003.7,N
1680927115.6,286047003.6,N
1680927135.4,286047004.5,N
1680927155.3,286047003.2,N
1680927175.1,286047004.0,N
1680927195.8,286047003.4,N
1680927215.7,286047005.0,N
1680927235.5,286047005.2,N
1680927255.4,286047003.8,N
1680927275.2,286047004.0,N
1680927295.0,286047001.8,N
1680927295.9,286047001.8,N
1680927315.8,286047002.5,N
1680927335.6,286047002.8,N
1680927355.5,286047001.4,N
1680927375.3,286047001.7,N
1680927395.1,286047004.0,N
1680927415.9,286047004.0,N
1680927435.7,286047001.4,N
1680927455.6,286047004.4,Y
1680927475.4,286046998.5,P
1680927495.2,286046998.7,N
1680927515.1,286046998.2,N
1680927516.0,286046998.2,N
1680927535.8,286047001.0,N
1680927555.7,286047000.8,N
1680927575.5,286047000.5,N
1680927595.3,286047001.0,N
1680927615.2,286047001.9,N
1680927635.9,286046999.7,N
1680927655.7,286047002.6,N
1680927675.6,286047002.5,N
1680927695.4,286047000.0,N
1680927715.3,286046998.6,N
1680927735.1,286046998.7,N
1680927736.0,286046998.7,N
1680927755.8,286046996.5,N
1680927775.7,286046998.7,N
1680927795.5,286046998.9,N
1680927815.3,286046998.4,N
1680927835.2,286046998.1,N
1680927855.0,286047002.6,N
1680927855.9,286047002.6,N
1680927875.8,286047002.3,N
1680927895.6,286047002.0,N
1680927915.4,286047002.1,N
1680927935.3,286046999.8,N
1680927955.1,286047003.9,N
1680927975.9,286047004.1,N
1680927995.7,286047001.4,N
1680928015.5,286047003.4,N
1680928035.4,286047003.6,N
1680928055.2,286047003.2,N
1680928075.0,286047004.0,N
1680928075.9,286047004.0,N
1680928095.8,286047002.3,N
1680928115.6,286047002.5,N
1680928135.5,286047002.5,N
1680928155.3,286047001.7,N
1680928175.1,286047002.1,N
1680928195.9,286047001.5,N
1680928215.7,286047004.3,N
1680928235.5,286047004.1,N
1680928255.4,286047004.2,N
1680928275.2,286047004.2,N
1680928295.1,286047003.6,N
1680928296.0,286047003.6,N
1680928315.8,286047004.1,N
1680928335.6,286047003.4,N
1680928355.5,286047003.5,N
1680928375.3,286047000.6,N
1680928395.1,286046998.4,N
1680928415.9,286047001.2,N
1680928435.7,286046998.9,N
1680928455.6,286047000.2,N
1680928475.4,286047000.6,N
1680928495.2,286047000.5,N
1680928515.1,286046998.6,N
1680928516.0,286046998.6,N
1680928535.8,286046999.9,N
1680928555.6,286046999.1,N
1680928575.5,286047000.7,N
1680928595.3,286047000.0,N
1680928615.2,286047002.0,N
1680928635.9,286047001.8,N
1680928655.7,286047011.9,Y
1680928675.6,286047002.5,P
1680928695.4,286046999.9,N
1680928715.3,286047000.2,N
1680928735.1,286046999.4,N
1680928736.0,286046999.4,N
1680928755.8,286046998.6,N
1680928775.7,286047001.1,N
1680928795.5,286047001.0,N
1680928815.3,286047000.5,N
1680928835.2,286047000.0,N
1680928855.0,286047002.0,N
1680928855.9,286047002.0,N
1680928875.8,286047002.5,N
1680928895.6,286047001.6,N
1680928915.4,286047001.5,N
1680928935.3,286047002.0,N
1680928955.1,286047001.7,N
1680928975.8,286047004.1,Y
1680928995.7,286047002.8,P
1680929015.5,286047000.7,N
1680929035.4,286046998.7,N
1680929055.2,286046998.6,N
1680929075.0,286047000.9,N
1680929075.9,286047000.9,N
1680929095.8,286047000.6,N
1680929115.6,286047000.7,N
1680929135.4,286047000.6,N
1680929155.3,286047001.1,N
1680929175.1,286046999.8,N
1680929195.9,286047000.5,N
1680929215.7,286047000.9,N
1680929235.5,286046996.6,Y
1680929255.4,286046997.2,P
1680929275.2,286046996.5,N
1680929295.0,286046999.6,N
1680929296.0,286046999.6,N
1680929315.8,286046999.5,N
1680929335.6,286046999.5,N
1680929355.5,286046998.5,N
1680929375.3,286047000.6,N
1680929395.1,286046998.6,N
1680929415.9,286046999.3,N
1680929435.7,286046999.0,N
1680929455.5,286046999.7,N
1680929475.4,286047000.9,N
1680929495.2,286046998.1,N
1680929515.1,286046998.4,N
1680929516.0,286046998.4,N
1680929535.8,286046996.5,Y
1680929555.6,286046998.8,P
1680929575.5,286046999.7,N
1680929595.3,286047001.0,N
1680929615.1,286046998.6,N
1680929635.9,286046998.6,N
1680929655.7,286046998.3,N
1680929675.6,286046998.8,N
1680929695.4,286047001.1,N
1680929715.2,286046998.1,N
1680929735.1,286046998.1,N
1680929736.0,286046998.1,N
1680929755.8,286047001.2,N
1680929775.7,286047000.5,N
1680929795.5,286046999.7,N
1680929815.3,286047000.5,N
1680929835.2,286046999.8,N
1680929855.9,286047000.9,N
1680929875.7,286047002.1,N
1680929895.6,286046999.9,N
1680929915.4,286047000.2,N
1680929935.2,286046999.8,N
1680929955.1,286047001.1,N
1680929956.0,286047001.1,N
1680929975.8,286047001.1,N
1680929995.7,286046998.9,N
